Terminal Aerodrome Forecast
Issued by NWS

Home | Current Version | Previous Version | Graphics & Text | Print | Product List | Glossary On
Versions: 1 2 3 4 5 6 7 8 9 10 11 12 13 14 15 16 17 18 19 20 21 22 23
000
FTUS43 KABR 270808 AAB
TAFMBG
TAF AMD
KMBG 270808Z 2708/2806 10011KT P6SM VCTS BKN070CB
      TEMPO 2708/2710 5SM TSRA BKN040CB
     FM271000 13015KT P6SM SKC
     FM271700 15023G30KT P6SM SCT250=

USA.gov is the U.S. government's official web portal to all federal, state and local government web resources and services.